{"data":{"norad_id":69586,"intl_designator":"2026-138E","name":"CENTISPACE-1 GROUP 05 O*","alt_names":[],"object_type":"PAYLOAD","status":"ACTIVE","operator":null,"country":"PRC","launch_date":"2026-06-17","launch_site_code":"JSC","launch_vehicle":null,"mission":null,"orbit_class":"UNKNOWN","rcs_meters":null,"size_class":null,"mass_kg":null,"dimensions":null,"purposes":[],"wikipedia_slug":null,"has_3d_model":false,"image_url":null,"decayed_at":null,"tle_current":{"epoch":"2026-09-20T02:08:47.376672Z","epoch_age_seconds":64488,"freshness":"FRESH","line1":"1 69586U 26138E   26263.08943723  .00000014  00000+0  84420-4 0  9995","line2":"2 69586  55.1394 290.5003 0012246 107.2986 252.9329 14.16002463 13463","mean_motion":14.16002463,"eccentricity":0.0012246,"inclination_deg":55.1394,"raan_deg":290.5003,"arg_perigee_deg":107.2986,"mean_anomaly_deg":252.9329,"bstar":8.442e-5,"rev_number":1346,"period_min":101.69473836572,"perigee_km":830.0659498468,"apogee_km":847.74192651259,"semimajor_km":7217.0409381797,"source":"CELESTRAK","updated_at":"2026-09-20T09:00:24.996616Z"}}}